QFA191 YSSY-NZCH

Flight info

Callsign QFA191
Flight time 3h 7m
Altitude 35000
Route MARUB DCT CAWLY M636 PLUGA N750 VANDA
Aircraft B738/M-SDE2E3FGHIRWXY/LB1

Departure

Time 2026-04-24 23:48
Airport Sydney Kingsford Smith International Airport (YSSY)

Arrival

Time 2026-04-25 02:55
Airport Christchurch International Airport (NZCH)
Time Latitude Longitude Altitude Speed Heading
2026-04-24 23:17 -33.93112 151.17714 21 ft 0 kts 189°
2026-04-24 23:32 -33.93100 151.17715 21 ft 2 kts 189°
2026-04-24 23:32 -33.93085 151.17719 21 ft 2 kts 189°
2026-04-24 23:33 -33.93070 151.17722 21 ft 2 kts 189°
2026-04-24 23:33 -33.93055 151.17725 21 ft 2 kts 189°
2026-04-24 23:33 -33.93048 151.17726 21 ft 0 kts 223°
2026-04-24 23:33 -33.93045 151.17732 21 ft 1 kts 272°
2026-04-24 23:34 -33.93045 151.17737 21 ft 0 kts 305°
2026-04-24 23:34 -33.93049 151.17744 21 ft 0 kts 298°
2026-04-24 23:36 -33.93047 151.17741 21 ft 2 kts 298°
2026-04-24 23:36 -33.93027 151.17694 21 ft 10 kts 298°
2026-04-24 23:36 -33.93010 151.17589 21 ft 15 kts 257°
2026-04-24 23:37 -33.93103 151.17523 19 ft 18 kts 175°
2026-04-24 23:37 -33.93245 151.17555 16 ft 22 kts 168°
2026-04-24 23:37 -33.93584 151.17610 8 ft 27 kts 166°
2026-04-24 23:38 -33.93766 151.17693 8 ft 25 kts 168°
2026-04-24 23:38 -33.93908 151.17783 10 ft 19 kts 166°
2026-04-24 23:38 -33.94044 151.17821 11 ft 20 kts 167°
2026-04-24 23:38 -33.94189 151.17854 16 ft 21 kts 169°
2026-04-24 23:39 -33.94333 151.17891 21 ft 21 kts 167°
2026-04-24 23:39 -33.94478 151.17896 24 ft 21 kts 196°
2026-04-24 23:39 -33.94630 151.17912 25 ft 23 kts 167°
2026-04-24 23:39 -33.94794 151.17956 27 ft 25 kts 168°
2026-04-24 23:40 -33.94968 151.17998 25 ft 24 kts 168°
2026-04-24 23:40 -33.95137 151.18048 19 ft 25 kts 150°
2026-04-24 23:40 -33.95153 151.18228 17 ft 16 kts 82°
2026-04-24 23:40 -33.95141 151.18308 17 ft 2 kts 78°
2026-04-24 23:42 -33.95139 151.18320 17 ft 2 kts 77°
2026-04-24 23:42 -33.95130 151.18368 16 ft 10 kts 77°
2026-04-24 23:42 -33.95116 151.18484 15 ft 18 kts 96°
2026-04-24 23:42 -33.95201 151.18637 13 ft 26 kts 138°
2026-04-24 23:43 -33.95349 151.18796 11 ft 22 kts 148°
2026-04-24 23:43 -33.95519 151.18846 11 ft 28 kts 167°
2026-04-24 23:43 -33.95665 151.18886 9 ft 14 kts 168°
2026-04-24 23:43 -33.95739 151.18858 8 ft 11 kts 292°
2026-04-24 23:44 -33.95763 151.18835 8 ft 9 kts 168°
2026-04-24 23:44 -33.95851 151.18858 8 ft 16 kts 167°
2026-04-24 23:44 -33.95981 151.18893 8 ft 21 kts 168°
2026-04-24 23:44 -33.96138 151.18933 8 ft 25 kts 169°
2026-04-24 23:45 -33.96327 151.18980 8 ft 29 kts 168°
2026-04-24 23:45 -33.96540 151.19035 10 ft 33 kts 168°
2026-04-24 23:45 -33.96766 151.19075 11 ft 32 kts 185°
2026-04-24 23:45 -33.96978 151.19109 11 ft 30 kts 166°
2026-04-24 23:46 -33.97063 151.19176 11 ft 11 kts 93°
2026-04-24 23:46 -33.97052 151.19267 11 ft 13 kts 79°
2026-04-24 23:46 -33.96997 151.19359 11 ft 17 kts 355°
2026-04-24 23:46 -33.96829 151.19316 11 ft 40 kts 347°
2026-04-24 23:47 -33.96365 151.19199 9 ft 102 kts 348°
2026-04-24 23:47 -33.95512 151.18977 13 ft 155 kts 346°
2026-04-24 23:48 -33.91589 151.18193 1226 ft 225 kts
2026-04-24 23:48 -33.90180 151.19012 1825 ft 237 kts 45°
2026-04-24 23:48 -33.89344 151.20624 2330 ft 248 kts 73°
2026-04-24 23:48 -33.89243 151.22684 3025 ft 254 kts 98°
2026-04-24 23:49 -33.89793 151.24684 3702 ft 260 kts 114°
2026-04-24 23:49 -33.90651 151.26608 4403 ft 264 kts 118°
2026-04-24 23:49 -33.91518 151.28441 5089 ft 266 kts 118°
2026-04-24 23:49 -33.92389 151.30325 5772 ft 268 kts 117°
2026-04-24 23:50 -33.93222 151.32269 6442 ft 270 kts 112°
2026-04-24 23:50 -33.93706 151.34352 7107 ft 271 kts 95°
2026-04-24 23:50 -33.93707 151.36514 7729 ft 273 kts 86°
2026-04-24 23:50 -33.93554 151.38733 8351 ft 276 kts 85°
2026-04-24 23:51 -33.93403 151.41003 9002 ft 278 kts 87°
2026-04-24 23:51 -33.93296 151.43256 9665 ft 279 kts 88°
2026-04-24 23:51 -33.93229 151.45357 10196 ft 283 kts 91°
2026-04-24 23:51 -33.93385 151.47598 10827 ft 283 kts 103°
2026-04-24 23:52 -33.94154 151.49703 11357 ft 288 kts 126°
2026-04-24 23:52 -33.95445 151.51419 11687 ft 301 kts 136°
2026-04-24 23:52 -33.96928 151.53036 11958 ft 315 kts 138°
2026-04-24 23:52 -33.98428 151.54658 12309 ft 326 kts 137°
2026-04-24 23:53 -34.00040 151.56468 12911 ft 329 kts 136°
2026-04-24 23:53 -34.01709 151.58408 13570 ft 332 kts 135°
2026-04-24 23:53 -34.03240 151.60226 14143 ft 336 kts 135°
2026-04-24 23:53 -34.04808 151.62109 14791 ft 338 kts 135°
2026-04-24 23:54 -34.06428 151.64064 15418 ft 341 kts 135°
2026-04-24 23:54 -34.08092 151.66074 16065 ft 344 kts 134°
2026-04-24 23:54 -34.09633 151.67935 16665 ft 347 kts 134°
2026-04-24 23:54 -34.11190 151.69815 17220 ft 350 kts 134°
2026-04-24 23:55 -34.12743 151.71690 17816 ft 351 kts 134°
2026-04-24 23:55 -34.14369 151.73653 18368 ft 355 kts 134°
2026-04-24 23:55 -34.16057 151.75693 18992 ft 356 kts 134°
2026-04-24 23:55 -34.17735 151.77719 19601 ft 357 kts 134°
2026-04-24 23:56 -34.19371 151.79698 20116 ft 359 kts 134°
2026-04-24 23:56 -34.21075 151.81758 20725 ft 360 kts 134°
2026-04-24 23:56 -34.22805 151.83850 21245 ft 362 kts 134°
2026-04-24 23:56 -34.24533 151.85942 21754 ft 365 kts 134°
2026-04-24 23:57 -34.26241 151.88013 22286 ft 366 kts 134°
2026-04-24 23:57 -34.27919 151.90047 22765 ft 368 kts 134°
2026-04-24 23:57 -34.29664 151.92165 23274 ft 369 kts 134°
2026-04-24 23:57 -34.31316 151.94215 23715 ft 371 kts 131°
2026-04-24 23:58 -34.32796 151.96347 24115 ft 374 kts 127°
2026-04-24 23:58 -34.34164 151.98729 24540 ft 376 kts 122°
2026-04-24 23:58 -34.35469 152.01292 24942 ft 378 kts 121°
2026-04-24 23:58 -34.36676 152.03792 25353 ft 380 kts 120°
2026-04-24 23:59 -34.37862 152.06287 25731 ft 382 kts 120°
2026-04-24 23:59 -34.39071 152.08839 26216 ft 381 kts 120°
2026-04-24 23:59 -34.40301 152.11423 26613 ft 383 kts 120°
2026-04-24 23:59 -34.41533 152.14002 26867 ft 388 kts 120°
2026-04-25 00:00 -34.42766 152.16568 27247 ft 389 kts 120°
2026-04-25 00:00 -34.44056 152.19246 27602 ft 391 kts 121°
2026-04-25 00:00 -34.45344 152.21913 27970 ft 393 kts 121°
2026-04-25 00:00 -34.46677 152.24674 28292 ft 395 kts 121°
2026-04-25 00:01 -34.47961 152.27328 28608 ft 397 kts 121°
2026-04-25 00:01 -34.49242 152.29979 28937 ft 399 kts 121°
2026-04-25 00:01 -34.50581 152.32748 29294 ft 400 kts 121°
2026-04-25 00:01 -34.51940 152.35567 29586 ft 403 kts 121°
2026-04-25 00:02 -34.53240 152.38261 29860 ft 405 kts 121°
2026-04-25 00:02 -34.54568 152.41017 30196 ft 406 kts 121°
2026-04-25 00:02 -34.55917 152.43820 30498 ft 408 kts 121°
2026-04-25 00:02 -34.57290 152.46675 30782 ft 410 kts 121°
2026-04-25 00:03 -34.58638 152.49480 31048 ft 412 kts 121°
2026-04-25 00:03 -34.60004 152.52324 31316 ft 414 kts 121°
2026-04-25 00:03 -34.61381 152.55193 31587 ft 416 kts 121°
2026-04-25 00:03 -34.62790 152.58131 31854 ft 418 kts 121°
2026-04-25 00:04 -34.64222 152.61122 32120 ft 420 kts 121°
2026-04-25 00:04 -34.65580 152.63957 32357 ft 423 kts 121°
2026-04-25 00:04 -34.67052 152.67035 32654 ft 424 kts 121°
2026-04-25 00:04 -34.68445 152.69951 32858 ft 426 kts 121°
2026-04-25 00:05 -34.69870 152.72937 33251 ft 425 kts 120°
2026-04-25 00:05 -34.71219 152.75764 33586 ft 424 kts 120°
2026-04-25 00:05 -34.72558 152.78575 33886 ft 424 kts 120°
2026-04-25 00:05 -34.73946 152.81491 34221 ft 423 kts 121°
2026-04-25 00:06 -34.75360 152.84465 34586 ft 422 kts 121°
2026-04-25 00:06 -34.76732 152.87355 34954 ft 421 kts 121°
2026-04-25 00:06 -34.78074 152.90181 35261 ft 420 kts 121°
2026-04-25 00:06 -34.79449 152.93082 35440 ft 421 kts 121°
2026-04-25 00:07 -34.82245 152.98979 35443 ft 419 kts 121°
2026-04-25 00:07 -34.84993 153.04787 35444 ft 417 kts 121°
2026-04-25 00:08 -34.87835 153.10803 35446 ft 415 kts 121°
2026-04-25 00:08 -34.90526 153.16510 35445 ft 413 kts 121°
2026-04-25 00:09 -34.93279 153.22357 35445 ft 412 kts 121°
2026-04-25 00:09 -34.95944 153.28023 35443 ft 410 kts 121°
2026-04-25 00:10 -34.98780 153.34065 35439 ft 408 kts 121°
2026-04-25 00:10 -35.01411 153.39684 35436 ft 406 kts 121°
2026-04-25 00:11 -35.03553 153.44266 35432 ft 404 kts 121°
2026-04-25 00:11 -35.06567 153.50722 35430 ft 403 kts 121°
2026-04-25 00:12 -35.09126 153.56209 35436 ft 409 kts 121°
2026-04-25 00:12 -35.11683 153.61700 35436 ft 411 kts 121°
2026-04-25 00:13 -35.14154 153.67013 35434 ft 409 kts 120°
2026-04-25 00:13 -35.16782 153.72679 35435 ft 408 kts 120°
2026-04-25 00:14 -35.19223 153.77953 35437 ft 406 kts 120°
2026-04-25 00:14 -35.21681 153.83267 35450 ft 406 kts 120°
2026-04-25 00:15 -35.24220 153.88765 35455 ft 414 kts 120°
2026-04-25 00:15 -35.27069 153.94939 35460 ft 420 kts 120°
2026-04-25 00:16 -35.29929 154.01154 35463 ft 416 kts 120°
2026-04-25 00:16 -35.32786 154.07375 35460 ft 417 kts 120°
2026-04-25 00:17 -35.35649 154.13619 35455 ft 419 kts 120°
2026-04-25 00:17 -35.38509 154.19869 35448 ft 417 kts 120°
2026-04-25 00:18 -35.41339 154.26062 35447 ft 417 kts 120°
2026-04-25 00:18 -35.44210 154.32358 35449 ft 419 kts 120°
2026-04-25 00:19 -35.47052 154.38603 35448 ft 418 kts 120°
2026-04-25 00:19 -35.49846 154.44754 35450 ft 418 kts 120°
2026-04-25 00:20 -35.52606 154.50839 35458 ft 418 kts 120°
2026-04-25 00:20 -35.55392 154.56995 35463 ft 418 kts 120°
2026-04-25 00:21 -35.58139 154.63072 35464 ft 418 kts 120°
2026-04-25 00:21 -35.60954 154.69217 35462 ft 417 kts 121°
2026-04-25 00:22 -35.64064 154.74957 35462 ft 417 kts 126°
2026-04-25 00:22 -35.67433 154.80698 35463 ft 418 kts 126°
2026-04-25 00:23 -35.70705 154.86259 35464 ft 417 kts 126°
2026-04-25 00:23 -35.74046 154.92000 35462 ft 418 kts 125°
2026-04-25 00:24 -35.77272 154.97594 35462 ft 417 kts 125°
2026-04-25 00:24 -35.80598 155.03389 35462 ft 417 kts 125°
2026-04-25 00:25 -35.83825 155.09035 35464 ft 418 kts 125°
2026-04-25 00:25 -35.87149 155.14861 35464 ft 418 kts 125°
2026-04-25 00:26 -35.90485 155.20718 35463 ft 417 kts 125°
2026-04-25 00:26 -35.93767 155.26491 35463 ft 416 kts 125°
2026-04-25 00:27 -35.97094 155.32352 35461 ft 417 kts 125°
2026-04-25 00:27 -36.00415 155.38214 35462 ft 417 kts 125°
2026-04-25 00:28 -36.03733 155.44080 35463 ft 417 kts 125°
2026-04-25 00:28 -36.07083 155.50009 35469 ft 419 kts 125°
2026-04-25 00:29 -36.10348 155.55803 35471 ft 418 kts 125°
2026-04-25 00:29 -36.13647 155.61664 35473 ft 417 kts 125°
2026-04-25 00:30 -36.16846 155.67360 35475 ft 418 kts 124°
2026-04-25 00:30 -36.20141 155.73231 35477 ft 417 kts 124°
2026-04-25 00:31 -36.23330 155.78928 35480 ft 417 kts 124°
2026-04-25 00:31 -36.26613 155.84801 35478 ft 418 kts 124°
2026-04-25 00:32 -36.29787 155.90489 35475 ft 418 kts 124°
2026-04-25 00:32 -36.32486 155.95331 35470 ft 418 kts 124°
2026-04-25 00:33 -36.36239 156.02077 35471 ft 418 kts 124°
2026-04-25 00:33 -36.39478 156.07909 35472 ft 418 kts 124°
2026-04-25 00:34 -36.42756 156.13821 35467 ft 418 kts 124°
2026-04-25 00:34 -36.46004 156.19691 35465 ft 419 kts 124°
2026-04-25 00:35 -36.49213 156.25502 35466 ft 419 kts 124°
2026-04-25 00:35 -36.52468 156.31404 35467 ft 419 kts 124°
2026-04-25 00:36 -36.55668 156.37216 35467 ft 419 kts 124°
2026-04-25 00:36 -36.58918 156.43131 35468 ft 420 kts 124°
2026-04-25 00:37 -36.62153 156.49025 35466 ft 420 kts 124°
2026-04-25 00:37 -36.65377 156.54910 35463 ft 420 kts 124°
2026-04-25 00:38 -36.68592 156.60791 35466 ft 420 kts 124°
2026-04-25 00:38 -36.71832 156.66728 35473 ft 420 kts 124°
2026-04-25 00:39 -36.75032 156.72601 35478 ft 420 kts 124°
2026-04-25 00:39 -36.78245 156.78510 35482 ft 420 kts 124°
2026-04-25 00:40 -36.81443 156.84401 35484 ft 420 kts 124°
2026-04-25 00:40 -36.84651 156.90318 35482 ft 420 kts 124°
2026-04-25 00:41 -36.87894 156.96312 35484 ft 421 kts 124°
2026-04-25 00:41 -36.91081 157.02214 35481 ft 421 kts 124°
2026-04-25 00:42 -36.94338 157.08254 35481 ft 420 kts 124°
2026-04-25 00:42 -36.97562 157.14244 35480 ft 420 kts 124°
2026-04-25 00:43 -37.00773 157.20221 35484 ft 421 kts 124°
2026-04-25 00:43 -37.03970 157.26184 35484 ft 423 kts 124°
2026-04-25 00:44 -37.07177 157.32175 35478 ft 421 kts 124°
2026-04-25 00:44 -37.10372 157.38155 35471 ft 422 kts 124°
2026-04-25 00:45 -37.13593 157.44191 35473 ft 423 kts 124°
2026-04-25 00:45 -37.16759 157.50137 35471 ft 423 kts 124°
2026-04-25 00:46 -37.19984 157.56206 35471 ft 424 kts 124°
2026-04-25 00:47 -37.24786 157.65259 35467 ft 423 kts 123°
2026-04-25 00:47 -37.27968 157.71274 35474 ft 424 kts 123°
2026-04-25 00:48 -37.31215 157.77422 35482 ft 424 kts 123°
2026-04-25 00:48 -37.34354 157.83377 35486 ft 425 kts 123°
2026-04-25 00:49 -37.37569 157.89485 35482 ft 424 kts 123°
2026-04-25 00:49 -37.40723 157.95489 35484 ft 424 kts 123°
2026-04-25 00:50 -37.43914 158.01575 35485 ft 424 kts 123°
2026-04-25 00:50 -37.47075 158.07614 35484 ft 425 kts 123°
2026-04-25 00:51 -37.50273 158.13733 35485 ft 426 kts 123°
2026-04-25 00:51 -37.53429 158.19786 35483 ft 425 kts 123°
2026-04-25 00:52 -37.56613 158.25905 35483 ft 427 kts 123°
2026-04-25 00:52 -37.59761 158.31967 35484 ft 426 kts 123°
2026-04-25 00:53 -37.62933 158.38086 35484 ft 426 kts 123°
2026-04-25 00:53 -37.66112 158.44232 35483 ft 426 kts 123°
2026-04-25 00:54 -37.69264 158.50336 35479 ft 427 kts 123°
2026-04-25 00:54 -37.72413 158.56445 35475 ft 426 kts 123°
2026-04-25 00:55 -37.75602 158.62643 35473 ft 428 kts 123°
2026-04-25 00:55 -37.78787 158.68845 35477 ft 428 kts 123°
2026-04-25 00:56 -37.81944 158.75006 35486 ft 429 kts 123°
2026-04-25 00:56 -37.85166 158.81302 35483 ft 429 kts 122°
2026-04-25 00:57 -37.88341 158.87521 35482 ft 430 kts 123°
2026-04-25 00:57 -37.91536 158.93791 35486 ft 430 kts 123°
2026-04-25 00:58 -37.94712 159.00034 35484 ft 429 kts 123°
2026-04-25 00:58 -37.97886 159.06285 35483 ft 430 kts 123°
2026-04-25 00:59 -38.01043 159.12517 35483 ft 430 kts 123°
2026-04-25 00:59 -38.04254 159.18866 35484 ft 431 kts 122°
2026-04-25 01:00 -38.07391 159.25079 35485 ft 431 kts 122°
2026-04-25 01:00 -38.10595 159.31436 35484 ft 430 kts 122°
2026-04-25 01:01 -38.13730 159.37671 35482 ft 430 kts 122°
2026-04-25 01:01 -38.16906 159.44000 35482 ft 430 kts 122°
2026-04-25 01:02 -38.20031 159.50238 35480 ft 429 kts 122°
2026-04-25 01:02 -38.23195 159.56567 35477 ft 430 kts 122°
2026-04-25 01:03 -38.26334 159.62859 35470 ft 430 kts 122°
2026-04-25 01:03 -38.29308 159.68829 35465 ft 431 kts 121°
2026-04-25 01:04 -38.32186 159.74618 35463 ft 431 kts 122°
2026-04-25 01:04 -38.35083 159.80455 35466 ft 431 kts 121°
2026-04-25 01:05 -38.37921 159.86185 35475 ft 430 kts 121°
2026-04-25 01:05 -38.40779 159.91963 35485 ft 430 kts 121°
2026-04-25 01:06 -38.43552 159.97582 35484 ft 431 kts 121°
2026-04-25 01:06 -38.46479 160.03520 35484 ft 431 kts 121°
2026-04-25 01:07 -38.49310 160.09277 35483 ft 431 kts 121°
2026-04-25 01:07 -38.52113 160.14986 35480 ft 430 kts 121°
2026-04-25 01:08 -38.54985 160.20844 35482 ft 431 kts 121°
2026-04-25 01:08 -38.57780 160.26556 35480 ft 431 kts 121°
2026-04-25 01:09 -38.60810 160.32761 35472 ft 430 kts 121°
2026-04-25 01:09 -38.63853 160.39004 35465 ft 432 kts 121°
2026-04-25 01:10 -38.66967 160.45404 35460 ft 431 kts 121°
2026-04-25 01:10 -38.70055 160.51765 35460 ft 432 kts 121°
2026-04-25 01:11 -38.73066 160.57979 35470 ft 432 kts 121°
2026-04-25 01:11 -38.75913 160.63863 35474 ft 432 kts 121°
2026-04-25 01:12 -38.78801 160.69846 35483 ft 432 kts 120°
2026-04-25 01:12 -38.81885 160.76247 35481 ft 432 kts 120°
2026-04-25 01:13 -38.85038 160.82802 35481 ft 432 kts 120°
2026-04-25 01:13 -38.88129 160.89246 35471 ft 433 kts 120°
2026-04-25 01:14 -38.91267 160.95798 35459 ft 432 kts 120°
2026-04-25 01:14 -38.94368 161.02286 35466 ft 433 kts 120°
2026-04-25 01:15 -38.97476 161.08801 35461 ft 432 kts 120°
2026-04-25 01:15 -39.00564 161.15291 35462 ft 433 kts 120°
2026-04-25 01:16 -39.03680 161.21848 35464 ft 433 kts 120°
2026-04-25 01:16 -39.06772 161.28371 35460 ft 432 kts 120°
2026-04-25 01:17 -39.09886 161.34953 35462 ft 434 kts 120°
2026-04-25 01:17 -39.12935 161.41411 35461 ft 432 kts 120°
2026-04-25 01:18 -39.16025 161.47971 35457 ft 435 kts 120°
2026-04-25 01:18 -39.19119 161.54550 35454 ft 433 kts 120°
2026-04-25 01:19 -39.22180 161.61075 35457 ft 435 kts 120°
2026-04-25 01:19 -39.25243 161.67616 35459 ft 434 kts 120°
2026-04-25 01:20 -39.28331 161.74226 35461 ft 434 kts 120°
2026-04-25 01:20 -39.31340 161.80679 35456 ft 435 kts 120°
2026-04-25 01:21 -39.34367 161.87183 35454 ft 435 kts 120°
2026-04-25 01:21 -39.37374 161.93657 35456 ft 434 kts 120°
2026-04-25 01:22 -39.40383 162.00150 35464 ft 435 kts 120°
2026-04-25 01:22 -39.43413 162.06700 35464 ft 434 kts 120°
2026-04-25 01:23 -39.46420 162.13217 35459 ft 432 kts 120°
2026-04-25 01:23 -39.49421 162.19733 35461 ft 434 kts 120°
2026-04-25 01:24 -39.52367 162.26141 35459 ft 434 kts 120°
2026-04-25 01:24 -39.55354 162.32654 35460 ft 436 kts 120°
2026-04-25 01:25 -39.58306 162.39104 35455 ft 435 kts 120°
2026-04-25 01:25 -39.61263 162.45577 35453 ft 435 kts 120°
2026-04-25 01:26 -39.64247 162.52122 35441 ft 434 kts 120°
2026-04-25 01:26 -39.67268 162.58762 35442 ft 435 kts 120°
2026-04-25 01:27 -39.70273 162.65381 35441 ft 433 kts 119°
2026-04-25 01:27 -39.73249 162.71953 35441 ft 434 kts 120°
2026-04-25 01:28 -39.77696 162.81795 35444 ft 435 kts 120°
2026-04-25 01:28 -39.80591 162.88220 35441 ft 434 kts 120°
2026-04-25 01:29 -39.83492 162.94670 35444 ft 436 kts 120°
2026-04-25 01:29 -39.86406 163.01164 35443 ft 434 kts 120°
2026-04-25 01:30 -39.89305 163.07642 35440 ft 434 kts 120°
2026-04-25 01:30 -39.92218 163.14166 35439 ft 434 kts 120°
2026-04-25 01:31 -39.95103 163.20642 35437 ft 434 kts 120°
2026-04-25 01:31 -39.98016 163.27197 35439 ft 435 kts 120°
2026-04-25 01:32 -40.00915 163.33731 35435 ft 435 kts 120°
2026-04-25 01:32 -40.03842 163.40343 35430 ft 435 kts 120°
2026-04-25 01:33 -40.06743 163.46909 35433 ft 435 kts 120°
2026-04-25 01:33 -40.09710 163.53641 35434 ft 434 kts 120°
2026-04-25 01:34 -40.12598 163.60210 35439 ft 434 kts 120°
2026-04-25 01:34 -40.15492 163.66801 35436 ft 435 kts 119°
2026-04-25 01:35 -40.18301 163.73218 35436 ft 435 kts 120°
2026-04-25 01:35 -40.21187 163.79820 35431 ft 436 kts 120°
2026-04-25 01:36 -40.23963 163.86186 35426 ft 435 kts 120°
2026-04-25 01:36 -40.26841 163.92796 35423 ft 435 kts 120°
2026-04-25 01:37 -40.29578 163.99100 35422 ft 436 kts 120°
2026-04-25 01:37 -40.32462 164.05756 35423 ft 436 kts 120°
2026-04-25 01:38 -40.35183 164.12048 35422 ft 436 kts 120°
2026-04-25 01:38 -40.38043 164.18677 35418 ft 437 kts 120°
2026-04-25 01:39 -40.40807 164.25095 35421 ft 437 kts 120°
2026-04-25 01:39 -40.43715 164.31863 35419 ft 437 kts 120°
2026-04-25 01:40 -40.46468 164.38281 35417 ft 438 kts 120°
2026-04-25 01:40 -40.49301 164.44905 35417 ft 437 kts 120°
2026-04-25 01:41 -40.52173 164.51631 35417 ft 437 kts 120°
2026-04-25 01:41 -40.54963 164.58180 35407 ft 438 kts 120°
2026-04-25 01:42 -40.57813 164.64885 35406 ft 438 kts 120°
2026-04-25 01:42 -40.60706 164.71704 35407 ft 439 kts 120°
2026-04-25 01:43 -40.63493 164.78291 35408 ft 438 kts 120°
2026-04-25 01:43 -40.66265 164.84857 35405 ft 440 kts 120°
2026-04-25 01:44 -40.69092 164.91565 35406 ft 441 kts 120°
2026-04-25 01:44 -40.71912 164.98273 35406 ft 441 kts 120°
2026-04-25 01:45 -40.74739 165.05014 35404 ft 440 kts 120°
2026-04-25 01:45 -40.77229 165.10963 35401 ft 441 kts 120°
2026-04-25 01:46 -40.78495 165.13992 35401 ft 442 kts 120°
2026-04-25 01:46 -40.79216 165.15717 35399 ft 442 kts 120°
2026-04-25 01:47 -40.81122 165.20287 35399 ft 441 kts 120°
2026-04-25 01:48 -40.83462 165.25906 35398 ft 441 kts 120°
2026-04-25 01:48 -40.86001 165.32016 35398 ft 441 kts 120°
2026-04-25 01:49 -40.88589 165.38252 35395 ft 441 kts 120°
2026-04-25 01:49 -40.91163 165.44470 35392 ft 442 kts 120°
2026-04-25 01:50 -40.93775 165.50792 35391 ft 441 kts 120°
2026-04-25 01:50 -40.96350 165.57039 35391 ft 442 kts 120°
2026-04-25 01:51 -40.98896 165.63228 35392 ft 441 kts 120°
2026-04-25 01:51 -41.01456 165.69463 35397 ft 442 kts 119°
2026-04-25 01:52 -41.04027 165.75742 35396 ft 441 kts 119°
2026-04-25 01:52 -41.06580 165.81987 35388 ft 441 kts 119°
2026-04-25 01:53 -41.09124 165.88220 35382 ft 441 kts 119°
2026-04-25 01:53 -41.11683 165.94507 35381 ft 442 kts 119°
2026-04-25 01:54 -41.14212 166.00732 35377 ft 442 kts 119°
2026-04-25 01:54 -41.16793 166.07100 35376 ft 442 kts 120°
2026-04-25 01:55 -41.19353 166.13426 35374 ft 443 kts 119°
2026-04-25 01:55 -41.21877 166.19682 35373 ft 442 kts 120°
2026-04-25 01:56 -41.24412 166.25975 35370 ft 442 kts 120°
2026-04-25 01:56 -41.26925 166.32227 35369 ft 442 kts 119°
2026-04-25 01:57 -41.30542 166.41249 35373 ft 441 kts 120°
2026-04-25 01:58 -41.31282 166.43098 35372 ft 441 kts 120°
2026-04-25 01:58 -41.33357 166.48288 35369 ft 442 kts 119°
2026-04-25 01:59 -41.35867 166.54578 35366 ft 442 kts 120°
2026-04-25 01:59 -41.38377 166.60883 35361 ft 444 kts 120°
2026-04-25 02:00 -41.40889 166.67210 35361 ft 444 kts 119°
2026-04-25 02:00 -41.43384 166.73502 35363 ft 445 kts 119°
2026-04-25 02:01 -41.45890 166.79839 35360 ft 445 kts 119°
2026-04-25 02:01 -41.48371 166.86125 35361 ft 445 kts 119°
2026-04-25 02:02 -41.50867 166.92464 35363 ft 445 kts 119°
2026-04-25 02:02 -41.53377 166.98850 35367 ft 445 kts 119°
2026-04-25 02:03 -41.55883 167.05240 35367 ft 446 kts 119°
2026-04-25 02:03 -41.58384 167.11633 35358 ft 446 kts 119°
2026-04-25 02:04 -41.60881 167.18027 35356 ft 446 kts 119°
2026-04-25 02:04 -41.63384 167.24454 35351 ft 447 kts 119°
2026-04-25 02:05 -41.65885 167.30885 35348 ft 447 kts 119°
2026-04-25 02:05 -41.68400 167.37372 35346 ft 446 kts 120°
2026-04-25 02:06 -41.70921 167.43886 35339 ft 447 kts 120°
2026-04-25 02:06 -41.73443 167.50415 35342 ft 446 kts 120°
2026-04-25 02:07 -41.75936 167.56888 35340 ft 447 kts 120°
2026-04-25 02:07 -41.78413 167.63333 35341 ft 448 kts 120°
2026-04-25 02:08 -41.80909 167.69838 35341 ft 449 kts 119°
2026-04-25 02:08 -41.83416 167.76390 35342 ft 450 kts 119°
2026-04-25 02:09 -41.85931 167.82979 35336 ft 450 kts 119°
2026-04-25 02:09 -41.88383 167.89415 35327 ft 450 kts 119°
2026-04-25 02:10 -41.90736 167.95605 35322 ft 450 kts 119°
2026-04-25 02:10 -41.93276 168.02301 35322 ft 449 kts 119°
2026-04-25 02:11 -41.95899 168.09235 35324 ft 449 kts 119°
2026-04-25 02:11 -41.98572 168.16313 35330 ft 450 kts 119°
2026-04-25 02:12 -42.01216 168.23335 35332 ft 449 kts 119°
2026-04-25 02:12 -42.03878 168.30423 35327 ft 450 kts 119°
2026-04-25 02:13 -42.06493 168.37402 35320 ft 449 kts 119°
2026-04-25 02:13 -42.09179 168.44588 35309 ft 450 kts 119°
2026-04-25 02:14 -42.11704 168.51361 35303 ft 450 kts 120°
2026-04-25 02:14 -42.14336 168.58440 35311 ft 450 kts 119°
2026-04-25 02:15 -42.16903 168.65356 35313 ft 450 kts 119°
2026-04-25 02:15 -42.19386 168.72064 35311 ft 451 kts 119°
2026-04-25 02:16 -42.21958 168.79030 35307 ft 451 kts 119°
2026-04-25 02:16 -42.24560 168.86095 35307 ft 451 kts 119°
2026-04-25 02:17 -42.27176 168.93214 35311 ft 450 kts 119°
2026-04-25 02:17 -42.29713 169.00137 35306 ft 450 kts 119°
2026-04-25 02:18 -42.32053 169.06534 35307 ft 451 kts 119°
2026-04-25 02:18 -42.34558 169.13402 35304 ft 452 kts 119°
2026-04-25 02:19 -42.37009 169.20136 35292 ft 452 kts 119°
2026-04-25 02:19 -42.39394 169.26703 35293 ft 452 kts 119°
2026-04-25 02:20 -42.39773 169.27748 35293 ft 452 kts 119°
2026-04-25 02:20 -42.42057 169.34026 35287 ft 451 kts 119°
2026-04-25 02:21 -42.43882 169.39693 34873 ft 448 kts 115°
2026-04-25 02:21 -42.44748 169.42764 34349 ft 447 kts 113°
2026-04-25 02:21 -42.45272 169.44711 34128 ft 448 kts 113°
2026-04-25 02:21 -42.46204 169.48244 33728 ft 457 kts 112°
2026-04-25 02:22 -42.47081 169.51605 33344 ft 461 kts 112°
2026-04-25 02:22 -42.48020 169.55205 32932 ft 456 kts 112°
2026-04-25 02:22 -42.48867 169.58437 32557 ft 452 kts 112°
2026-04-25 02:22 -42.49817 169.62041 32134 ft 447 kts 112°
2026-04-25 02:23 -42.50743 169.65530 31720 ft 443 kts 112°
2026-04-25 02:23 -42.51638 169.68878 31326 ft 444 kts 112°
2026-04-25 02:23 -42.52550 169.72275 30927 ft 447 kts 112°
2026-04-25 02:23 -42.53482 169.75735 30534 ft 450 kts 112°
2026-04-25 02:24 -42.54400 169.79140 30140 ft 451 kts 112°
2026-04-25 02:24 -42.55339 169.82622 29747 ft 451 kts 112°
2026-04-25 02:24 -42.56258 169.86031 29369 ft 452 kts 112°
2026-04-25 02:24 -42.57182 169.89461 28988 ft 453 kts 112°
2026-04-25 02:25 -42.58138 169.93013 28597 ft 454 kts 112°
2026-04-25 02:25 -42.59078 169.96512 28210 ft 455 kts 112°
2026-04-25 02:25 -42.60030 170.00060 27821 ft 456 kts 112°
2026-04-25 02:25 -42.60978 170.03592 27435 ft 457 kts 112°
2026-04-25 02:26 -42.61929 170.07146 27050 ft 458 kts 112°
2026-04-25 02:26 -42.62861 170.10632 26673 ft 459 kts 112°
2026-04-25 02:26 -42.63825 170.14246 26286 ft 460 kts 112°
2026-04-25 02:26 -42.64785 170.17851 25896 ft 461 kts 112°
2026-04-25 02:27 -42.65735 170.21422 25518 ft 462 kts 112°
2026-04-25 02:27 -42.66703 170.25066 25128 ft 461 kts 112°
2026-04-25 02:27 -42.67692 170.28799 24729 ft 457 kts 112°
2026-04-25 02:27 -42.68615 170.32288 24357 ft 454 kts 112°
2026-04-25 02:28 -42.69548 170.35820 23979 ft 453 kts 112°
2026-04-25 02:28 -42.70471 170.39317 23604 ft 451 kts 112°
2026-04-25 02:28 -42.71387 170.42793 23233 ft 449 kts 112°
2026-04-25 02:28 -42.72319 170.46333 22859 ft 446 kts 111°
2026-04-25 02:29 -42.73231 170.49806 22482 ft 442 kts 111°
2026-04-25 02:29 -42.74122 170.53200 22118 ft 439 kts 111°
2026-04-25 02:29 -42.75012 170.56596 21749 ft 437 kts 112°
2026-04-25 02:29 -42.75899 170.59987 21383 ft 435 kts 111°
2026-04-25 02:30 -42.76781 170.63361 21016 ft 432 kts 111°
2026-04-25 02:30 -42.77642 170.66656 20639 ft 429 kts 111°
2026-04-25 02:30 -42.77780 170.67186 20577 ft 429 kts 111°
2026-04-25 02:30 -42.78353 170.69385 20338 ft 427 kts 111°
2026-04-25 02:31 -42.79184 170.72577 19992 ft 424 kts 111°
2026-04-25 02:31 -42.79995 170.75694 19638 ft 418 kts 111°
2026-04-25 02:31 -42.80803 170.78807 19348 ft 410 kts 111°
2026-04-25 02:31 -42.81586 170.81834 19088 ft 401 kts 110°
2026-04-25 02:32 -42.82370 170.84865 18853 ft 391 kts 111°
2026-04-25 02:32 -42.83115 170.87752 18622 ft 382 kts 111°
2026-04-25 02:32 -42.83829 170.90520 18425 ft 373 kts 111°
2026-04-25 02:32 -42.84376 170.92639 18284 ft 370 kts 110°
2026-04-25 02:33 -42.85025 170.95157 18079 ft 370 kts 111°
2026-04-25 02:33 -42.85759 170.97998 17863 ft 371 kts 110°
2026-04-25 02:33 -42.86480 171.00794 17640 ft 370 kts 110°
2026-04-25 02:34 -42.87209 171.03627 17438 ft 369 kts 110°
2026-04-25 02:34 -42.87932 171.06442 17248 ft 368 kts 110°
2026-04-25 02:34 -42.88670 171.09319 17031 ft 368 kts 110°
2026-04-25 02:34 -42.89395 171.12154 16843 ft 367 kts 110°
2026-04-25 02:35 -42.90132 171.15034 16636 ft 366 kts 110°
2026-04-25 02:35 -42.90873 171.17935 16431 ft 366 kts 110°
2026-04-25 02:35 -42.91594 171.20761 16229 ft 365 kts 110°
2026-04-25 02:35 -42.92318 171.23604 16014 ft 364 kts 110°
2026-04-25 02:36 -42.93027 171.26387 15788 ft 363 kts 111°
2026-04-25 02:36 -42.93715 171.29089 15583 ft 363 kts 110°
2026-04-25 02:36 -42.94395 171.31767 15368 ft 361 kts 110°
2026-04-25 02:36 -42.95098 171.34537 15160 ft 360 kts 110°
2026-04-25 02:37 -42.95789 171.37270 14956 ft 359 kts 110°
2026-04-25 02:37 -42.96473 171.39972 14736 ft 359 kts 110°
2026-04-25 02:37 -42.97150 171.42650 14519 ft 357 kts 110°
2026-04-25 02:37 -42.97820 171.45306 14314 ft 356 kts 111°
2026-04-25 02:38 -42.98499 171.47965 14082 ft 355 kts 112°
2026-04-25 02:38 -42.99275 171.50648 13859 ft 354 kts 116°
2026-04-25 02:38 -43.00194 171.53157 13644 ft 352 kts 121°
2026-04-25 02:38 -43.01239 171.55560 13434 ft 349 kts 124°
2026-04-25 02:39 -43.02320 171.57848 13231 ft 348 kts 126°
2026-04-25 02:39 -43.03469 171.60199 13035 ft 346 kts 126°
2026-04-25 02:39 -43.04586 171.62479 12813 ft 344 kts 126°
2026-04-25 02:39 -43.05696 171.64764 12587 ft 343 kts 126°
2026-04-25 02:40 -43.06833 171.67137 12375 ft 342 kts 124°
2026-04-25 02:40 -43.07907 171.69402 12173 ft 341 kts 124°
2026-04-25 02:40 -43.09032 171.71791 11965 ft 340 kts 124°
2026-04-25 02:40 -43.10128 171.74132 11802 ft 338 kts 124°
2026-04-25 02:41 -43.11203 171.76433 11642 ft 337 kts 124°
2026-04-25 02:41 -43.12262 171.78705 11473 ft 336 kts 124°
2026-04-25 02:41 -43.13407 171.80885 11301 ft 333 kts 131°
2026-04-25 02:41 -43.14779 171.82916 11121 ft 323 kts 137°
2026-04-25 02:42 -43.16154 171.84654 10966 ft 314 kts 140°
2026-04-25 02:42 -43.17580 171.86340 10776 ft 305 kts 141°
2026-04-25 02:42 -43.18945 171.87933 10591 ft 298 kts 141°
2026-04-25 02:42 -43.20299 171.89534 10423 ft 291 kts 141°
2026-04-25 02:43 -43.21589 171.91081 10258 ft 290 kts 140°
2026-04-25 02:43 -43.22865 171.92633 10097 ft 291 kts 140°
2026-04-25 02:43 -43.24156 171.94222 9998 ft 288 kts 140°
2026-04-25 02:43 -43.25422 171.95789 9993 ft 289 kts 140°
2026-04-25 02:44 -43.26789 171.97482 9988 ft 290 kts 140°
2026-04-25 02:44 -43.28087 171.99091 9992 ft 290 kts 140°
2026-04-25 02:44 -43.29353 172.00661 9999 ft 290 kts 140°
2026-04-25 02:44 -43.30621 172.02231 9806 ft 293 kts 140°
2026-04-25 02:45 -43.31892 172.03806 9469 ft 293 kts 140°
2026-04-25 02:45 -43.33183 172.05406 9122 ft 293 kts 140°
2026-04-25 02:45 -43.34459 172.06988 8766 ft 293 kts 140°
2026-04-25 02:45 -43.35754 172.08598 8383 ft 293 kts 140°
2026-04-25 02:46 -43.37022 172.10176 8173 ft 281 kts 140°
2026-04-25 02:46 -43.38267 172.11726 7857 ft 274 kts 139°
2026-04-25 02:46 -43.39497 172.13255 7499 ft 266 kts 140°
2026-04-25 02:46 -43.40636 172.14673 7127 ft 259 kts 139°
2026-04-25 02:47 -43.41782 172.16098 6741 ft 256 kts 139°
2026-04-25 02:47 -43.42927 172.17522 6366 ft 254 kts 139°
2026-04-25 02:47 -43.44091 172.18971 5968 ft 252 kts 139°
2026-04-25 02:47 -43.45197 172.20354 5581 ft 252 kts 138°
2026-04-25 02:48 -43.46324 172.21762 5193 ft 254 kts 138°
2026-04-25 02:48 -43.47450 172.23171 4819 ft 255 kts 138°
2026-04-25 02:48 -43.48596 172.24602 4446 ft 256 kts 139°
2026-04-25 02:48 -43.49802 172.26109 4048 ft 257 kts 139°
2026-04-25 02:49 -43.50952 172.27550 3666 ft 257 kts 139°
2026-04-25 02:49 -43.52071 172.28950 3294 ft 258 kts 139°
2026-04-25 02:49 -43.53228 172.30400 2996 ft 252 kts 139°
2026-04-25 02:49 -43.54352 172.31812 2957 ft 235 kts 139°
2026-04-25 02:50 -43.55360 172.33092 2963 ft 217 kts 137°
2026-04-25 02:50 -43.56261 172.34387 2903 ft 214 kts 134°
2026-04-25 02:50 -43.57074 172.35683 2794 ft 195 kts 131°
2026-04-25 02:50 -43.57810 172.36899 2551 ft 184 kts 131°
2026-04-25 02:51 -43.58556 172.38141 2197 ft 181 kts 128°
2026-04-25 02:51 -43.59066 172.39429 1992 ft 172 kts 102°
2026-04-25 02:51 -43.59047 172.40869 2112 ft 177 kts 71°
2026-04-25 02:51 -43.58476 172.42091 2122 ft 177 kts 43°
2026-04-25 02:52 -43.57608 172.43127 2110 ft 177 kts 40°
2026-04-25 02:52 -43.56786 172.44098 1953 ft 177 kts 40°
2026-04-25 02:52 -43.55971 172.45052 1723 ft 167 kts 39°
2026-04-25 02:52 -43.55235 172.45901 1554 ft 155 kts 39°
2026-04-25 02:53 -43.54517 172.46729 1334 ft 147 kts 39°
2026-04-25 02:53 -43.53794 172.47565 1192 ft 149 kts 39°
2026-04-25 02:53 -43.53101 172.48364 1005 ft 148 kts 39°
2026-04-25 02:53 -43.52427 172.49144 840 ft 148 kts 39°
2026-04-25 02:54 -43.51723 172.49956 662 ft 148 kts 40°
2026-04-25 02:54 -43.51012 172.50778 492 ft 148 kts 40°
2026-04-25 02:54 -43.50326 172.51578 313 ft 148 kts 40°
2026-04-25 02:54 -43.49637 172.52357 174 ft 148 kts 40°
2026-04-25 02:55 -43.48982 172.53130 114 ft 125 kts 37°
2026-04-25 02:55 -43.48532 172.53664 110 ft 82 kts 58°
2026-04-25 02:55 -43.48505 172.54027 107 ft 30 kts 131°